TimeEDT,TemperatureF,Dew PointF,Humidity,Sea Level PressureIn,VisibilityMPH,Wind Direction,Wind SpeedMPH,Gust SpeedMPH,PrecipitationIn,Events,Conditions,WindDirDegrees,DateUTC
12:15 AM,64.4,46.4,52,30.06,10.0,NNW,12.7,27.6,N/A,,Unknown,340,2012-10-11 04:15:00
12:35 AM,62.6,48.2,59,30.07,10.0,North,12.7,18.4,N/A,,Unknown,350,2012-10-11 04:35:00
12:55 AM,62.6,46.4,55,30.08,10.0,North,11.5,16.1,N/A,,Clear,360,2012-10-11 04:55:00
1:15 AM,60.8,44.6,55,30.10,10.0,North,11.5,19.6,N/A,,Clear,350,2012-10-11 05:15:00
1:35 AM,60.8,44.6,55,30.10,10.0,North,9.2,20.7,N/A,,Clear,350,2012-10-11 05:35:00
1:55 AM,60.8,42.8,52,30.11,10.0,NNW,12.7,21.9,N/A,,Clear,340,2012-10-11 05:55:00
2:15 AM,60.8,44.6,55,30.11,10.0,North,8.1,-,N/A,,Clear,350,2012-10-11 06:15:00
2:35 AM,60.8,41.0,48,30.12,10.0,NNW,13.8,19.6,N/A,,Scattered Clouds,340,2012-10-11 06:35:00
2:55 AM,60.8,41.0,48,30.12,10.0,North,11.5,21.9,N/A,,Unknown,350,2012-10-11 06:55:00
3:15 AM,60.8,41.0,48,30.12,10.0,NNW,12.7,20.7,N/A,,Unknown,340,2012-10-11 07:15:00
3:35 AM,60.8,39.2,45,30.12,10.0,North,10.4,23.0,N/A,,Unknown,350,2012-10-11 07:35:00
3:55 AM,59.0,39.2,48,30.13,10.0,North,15.0,21.9,N/A,,Clear,350,2012-10-11 07:55:00
4:15 AM,59.0,39.2,48,30.14,10.0,North,6.9,23.0,N/A,,Clear,350,2012-10-11 08:15:00
4:35 AM,59.0,37.4,45,30.14,10.0,NNW,12.7,21.9,N/A,,Clear,330,2012-10-11 08:35:00
4:55 AM,59.0,37.4,45,30.15,10.0,NNW,12.7,18.4,N/A,,Clear,340,2012-10-11 08:55:00
5:15 AM,57.2,39.2,51,30.16,10.0,North,12.7,19.6,N/A,,Clear,350,2012-10-11 09:15:00
5:35 AM,57.2,39.2,51,30.16,10.0,North,13.8,21.9,N/A,,Clear,350,2012-10-11 09:35:00
5:55 AM,57.2,37.4,48,30.17,10.0,North,16.1,27.6,N/A,,Clear,360,2012-10-11 09:55:00
6:15 AM,57.2,39.2,51,30.18,10.0,North,12.7,21.9,N/A,,Clear,350,2012-10-11 10:15:00
6:35 AM,57.2,41.0,55,30.19,10.0,North,11.5,17.3,N/A,,Clear,360,2012-10-11 10:35:00
6:55 AM,55.4,41.0,58,30.20,10.0,North,9.2,-,N/A,,Clear,360,2012-10-11 10:55:00
7:15 AM,55.4,42.8,63,30.21,10.0,North,5.8,-,N/A,,Clear,10,2012-10-11 11:15:00
7:35 AM,55.4,42.8,63,30.22,10.0,North,5.8,-,N/A,,Clear,350,2012-10-11 11:35:00
7:55 AM,55.4,42.8,63,30.23,10.0,North,4.6,-,N/A,,Clear,350,2012-10-11 11:55:00
8:15 AM,57.2,42.8,59,30.25,10.0,North,8.1,-,N/A,,Clear,350,2012-10-11 12:15:00
8:35 AM,57.2,41.0,55,30.25,10.0,North,8.1,16.1,N/A,,Clear,350,2012-10-11 12:35:00
8:55 AM,59.0,39.2,48,30.26,10.0,NNW,10.4,16.1,N/A,,Clear,330,2012-10-11 12:55:00
9:15 AM,59.0,39.2,48,30.28,10.0,NNW,12.7,20.7,N/A,,Clear,340,2012-10-11 13:15:00
9:35 AM,59.0,39.2,48,30.28,10.0,North,9.2,18.4,N/A,,Clear,350,2012-10-11 13:35:00
9:55 AM,59.0,39.2,48,30.29,10.0,NW,8.1,-,N/A,,Clear,320,2012-10-11 13:55:00
10:15 AM,60.8,39.2,45,30.30,10.0,NW,11.5,18.4,N/A,,Clear,320,2012-10-11 14:15:00
10:35 AM,60.8,39.2,45,30.30,10.0,North,4.6,-,N/A,,Clear,350,2012-10-11 14:35:00
10:55 AM,60.8,39.2,45,30.30,10.0,NW,9.2,16.1,N/A,,Clear,320,2012-10-11 14:55:00
11:15 AM,60.8,39.2,45,30.30,10.0,NNW,9.2,-,N/A,,Clear,340,2012-10-11 15:15:00
11:35 AM,60.8,37.4,42,30.30,10.0,NNW,8.1,-,N/A,,Clear,330,2012-10-11 15:35:00
11:55 AM,60.8,37.4,42,30.29,10.0,NNW,10.4,-,N/A,,Clear,340,2012-10-11 15:55:00
12:15 PM,60.8,35.6,39,30.29,10.0,North,6.9,-,N/A,,Clear,350,2012-10-11 16:15:00
12:35 PM,62.6,39.2,42,30.29,10.0,NW,8.1,-,N/A,,Clear,310,2012-10-11 16:35:00
12:55 PM,62.6,39.2,42,30.28,10.0,West,8.1,-,N/A,,Clear,280,2012-10-11 16:55:00
1:15 PM,62.6,37.4,39,30.27,10.0,NNW,6.9,-,N/A,,Clear,340,2012-10-11 17:15:00
1:55 PM,62.6,37.4,39,30.26,10.0,WNW,6.9,-,N/A,,Clear,290,2012-10-11 17:55:00
2:15 PM,62.6,37.4,39,30.25,10.0,West,11.5,-,N/A,,Clear,280,2012-10-11 18:15:00
2:35 PM,62.6,37.4,39,30.25,10.0,WNW,9.2,-,N/A,,Clear,300,2012-10-11 18:35:00
2:55 PM,62.6,37.4,39,30.25,10.0,NW,8.1,-,N/A,,Clear,310,2012-10-11 18:55:00
3:15 PM,60.8,37.4,42,30.25,10.0,West,3.5,-,N/A,,Clear,270,2012-10-11 19:15:00
3:35 PM,60.8,37.4,42,30.25,10.0,NW,5.8,-,N/A,,Clear,310,2012-10-11 19:35:00
3:55 PM,60.8,37.4,42,30.25,10.0,NW,6.9,-,N/A,,Clear,320,2012-10-11 19:55:00
4:15 PM,62.6,37.4,39,30.25,10.0,NNW,4.6,-,N/A,,Clear,330,2012-10-11 20:15:00
4:55 PM,60.8,33.8,36,30.24,10.0,Calm,Calm,-,N/A,,Clear,0,2012-10-11 20:55:00
5:15 PM,60.8,33.8,36,30.24,10.0,WSW,6.9,-,N/A,,Clear,250,2012-10-11 21:15:00
6:15 PM,55.4,42.8,63,30.24,10.0,Calm,Calm,-,N/A,,Clear,0,2012-10-11 22:15:00
6:35 PM,53.6,44.6,72,30.24,10.0,Calm,Calm,-,N/A,,Clear,0,2012-10-11 22:35:00
6:55 PM,51.8,44.6,76,30.24,10.0,Calm,Calm,-,N/A,,Clear,0,2012-10-11 22:55:00
7:15 PM,50.0,44.6,82,30.24,10.0,Calm,Calm,-,N/A,,Clear,0,2012-10-11 23:15:00
7:35 PM,48.2,44.6,87,30.25,10.0,Calm,Calm,-,N/A,,Clear,0,2012-10-11 23:35:00
7:55 PM,46.4,44.6,93,30.25,10.0,Calm,Calm,-,N/A,,Clear,0,2012-10-11 23:55:00
8:15 PM,46.4,42.8,87,30.25,10.0,Calm,Calm,-,N/A,,Clear,0,2012-10-12 00:15:00
8:35 PM,46.4,42.8,87,30.24,10.0,SE,3.5,-,N/A,,Clear,140,2012-10-12 00:35:00
9:15 PM,44.6,42.8,93,30.25,10.0,Calm,Calm,-,N/A,,Clear,0,2012-10-12 01:15:00
9:35 PM,44.6,42.8,93,30.25,10.0,Calm,Calm,-,N/A,,Clear,0,2012-10-12 01:35:00
9:55 PM,44.6,42.8,93,30.24,10.0,Calm,Calm,-,N/A,,Clear,0,2012-10-12 01:55:00
10:15 PM,44.6,41.0,87,30.24,10.0,SSE,3.5,-,N/A,,Clear,160,2012-10-12 02:15:00
10:55 PM,44.6,42.8,93,30.23,10.0,South,3.5,-,N/A,,Clear,170,2012-10-12 02:55:00
11:15 PM,44.6,41.0,87,30.23,10.0,South,5.8,-,N/A,,Clear,170,2012-10-12 03:15:00
11:35 PM,42.8,41.0,93,30.23,10.0,South,4.6,-,N/A,,Clear,170,2012-10-12 03:35:00
11:55 PM,42.8,41.0,93,30.23,10.0,South,6.9,-,N/A,,Clear,180,2012-10-12 03:55:00